DELTA 1 DEB, 29062

Orbit data source: Space-Track

DELTA 1 DEB, 29062 is space debris in LEO originally from a launch on Thu, 04 Jul 1968 UTC launched from the Air Force Western Test Range (AFWTR). Debris objects in space refer to the collection of defunct objects orbiting the Earth. Examples of debris include non-operational satellites, rocket bodies, and fragments generated from explosions, collisions, or faulty payload assembly.

Loading next visibility...
Identifier
29062, 1968-055V
Orbit
LEO
Country
Flag of USUS
Related business
Manufacturer
Unknown
Mission
Spacecraft
Bus & Motor
Unknown
Mass
Unknown
Launch date (UTC)
1968-07-04 (58 years ago)
Launch vehicle
Unknown
Launch site
Air Force Western Test Range (AFWTR)
Object type
Payload
Rocket body
Debris
Shape & HBR
Unknown shape, 0.1 m
Radar Cross Section
Small (<0.1 m²)

Expand to show TLE details & history
Last TLE update: 3 days ago

TLE from 3 days ago
0 DELTA 1 DEB
1 29062U 68055V   26143.63890917  .00009680  00000-0  56482-2 0  9992
2 29062 120.6312 111.7327 1258892 137.2811 233.3192 12.23178210585969
Epoch: 2026-05-23T15:20Z
TLE epoch observation values (Epoch: 2026-05-23T15:20:01.752Z)
Latitude
-0.00006°
Longitude
0.47291°
Altitude
2,250.854 km
Speed
6.506 km/s
True Right ascension
07h 26m 55s
True Declination
0° 00' 00"
Sunlit
Object was in daylight at epoch
Visualization orbit readout
Latitude
Unknown
Longitude
Unknown
Altitude
Unknown
Speed
Unknown
Apparent Right ascension
Unknown
Apparent Declination
Unknown
Sunlit
N/A
Visualization observer readout
Local Sidereal Time
05:02:28
Azimuth
Unknown
Elevation
Unknown
Doppler factor
Unknown
Orbital elements
Apogee altitude
2,579.712 km
Perigee altitude
576.501 km
Semi-major axis
7,956.243 km
Eccentricity
0.12589
Inclination
120.6312°
RAAN
111.7327°
Arg. of periapsis
137.2811°
True anomaly
222.80554°
Mean anomaly
233.3192°
Eccentric anomaly
227.96215°
Mean motion
3.05831 °/min
Orbital period
117.71 mins
BSTAR
0.0056482
Loading maneuver chart data...
Computing Atmospheric mass density...
Loading historical data...
Loading historical data...
Loading historical data...
Loading historical data...
Loading historical data...
Loading historical data...
Loading historical data...

Documentation

Showing up to 5 results
|